Погода в Сосновом

Украина / Ровненская область     50°49′18″N   27°00′20″E
темп.,
°C
ветер,
м/с
пор.,
м/с
влажн.,
%
обл.,
%
осадки,
мм/ч
давл.,
гПа
погр.,
м
27 ноября, сб
сб2723:00+6юв81681100 0.0 997968
02:00+7ююв71489100 2.0 9931238
05:00+7ююз51090100 0.4 992523
08:00+7юз61379100 0.4 992953
11:00+7юз71182100 0.1 9951047
14:00+6зюз7147347 0.1 997923
17:00+4зюз487997 0.0 999231
20:00+2зюз238615 0.0 100157
28 ноября, вс
вс2823:00+1зюз22895 0.0 100315
02:00+1ююв339157 0.0 100347
05:00+2ююв348836 0.0 100272
08:00+3ююв3488100 0.0 100271
11:00+5юв3578100 0.0 1001190
14:00+6вюв2579100 0.1 1000194
17:00+6юв3589100 0.6 999143
20:00+5ююв248796 0.7 99867
29 ноября, пн
пн2923:00+5ююв3388100 0.0 99751
02:00+4юв3591100 0.0 99586
05:00+5юв3994100 0.0 993169
08:00+6юв41096100 0.0 991231
11:00+7ююз4888100 0.0 990486
14:00+3з61296100 0.7 991662
17:00+2з71283100 3.3 992870
20:00+2з81472100 3.3 9941215
30 ноября, вт
вт3023:00+1з81584100 0.0 9941375
02:00+1зюз9157682 0.1 9951086
05:000зюз91783100 0.1 9961367
08:00+1з101875100 0.1 9971201
11:00+2з101777100 0.0 9991335
14:00+2зсз9156961 0.1 10011406
17:00−1з8147484 0.0 1003933
20:00−1з71375100 0.0 1004968
1 декабря, ср
ср123:00−2зюз5118739 0.0 1003508
02:00−1юз51277100 0.0 1002601
05:00−1юз51296100 0.6 1000696
08:000зюз41197100 1.9 1001629
11:00+1з41098100 0.4 1002521
14:00+1з5997100 0.6 1003751
17:00+1зюз51097100 0.2 1004632
20:00+1юз4893100 0.2 1004397